Date String (YYYY-MM-DD hh:mm:ss) UTC,Instrument flags,Ambient pressure (hPa),Sample flow (lpm),Bypass flow (lpm),Sample temperature (°C),Ambient temperature (°C),ASC tube jacket temperature (°C),LED temperature (°C),Box temperature (°C),Sample RH (%),Span deviation,Mass concentration (μg/m³),Mass concentration (μg/m³),Mass concentration (μg/m³)
DateTimeUTC,F1_M11,P_M11,Q1_M11,Q2_M11,T1_M11,T2_M11,T3_M11,T4_M11,T5_M11,U1_M11,ZSPAN_M11,X2_M11,X0_M11,X1_M11
2022-03-07 20:00:00,,0827.5,4.99,0.00,21.7,20.9,00.0,30.9,23.3,08.3,-000.8,0004.55,0007.76,0004.33
2022-03-07 20:01:00,,0827.5,4.99,0.00,21.6,20.9,00.0,30.9,23.2,07.5,-000.2,0004.56,0007.77,0004.34
2022-03-07 20:02:00,,0827.5,4.99,0.00,21.6,20.8,00.0,30.9,23.2,07.9,-000.7,0004.55,0007.84,0004.34
2022-03-07 20:03:00,,0827.5,4.99,0.00,21.5,20.8,00.0,30.9,23.1,07.1,-000.7,0004.54,0007.77,0004.32
2022-03-07 20:04:00,,0827.5,5.01,0.00,21.5,20.7,00.0,30.8,23.1,07.0,0000.3,0004.50,0007.52,0004.30
2022-03-07 20:05:00,,0827.4,4.99,0.00,21.5,21.0,00.0,30.8,23.2,07.2,0000.0,0004.45,0007.24,0004.29
2022-03-07 20:06:00,,0827.4,5.01,0.00,21.7,21.9,00.0,30.8,23.5,07.2,0000.0,0004.43,0006.95,0004.28
2022-03-07 20:07:00,,0827.4,5.00,0.00,21.8,22.7,00.0,30.9,23.9,07.0,0000.0,0004.43,0007.11,0004.28
2022-03-07 20:08:00,,0827.4,4.99,0.00,22.0,22.7,00.0,30.9,24.0,06.9,0000.0,0004.43,0007.29,0004.27
2022-03-07 20:09:00,,0827.4,5.01,0.00,22.0,22.4,00.0,30.9,23.8,06.8,0000.0,0004.41,0007.23,0004.27
2022-03-07 20:10:00,,0827.4,5.00,0.00,21.9,22.2,00.0,30.9,23.7,06.9,0000.0,0004.38,0006.77,0004.25
2022-03-07 20:11:00,,0827.4,4.99,0.00,21.9,21.9,00.0,30.9,23.7,07.0,0000.0,0004.34,0006.27,0004.23
2022-03-07 20:12:00,,0827.3,5.01,0.00,21.9,21.8,00.0,30.9,23.7,07.3,0000.0,0004.33,0006.26,0004.21
2022-03-07 20:13:00,,0827.4,5.00,0.00,22.0,21.8,00.0,30.9,23.8,07.1,0000.0,0004.32,0006.07,0004.20
2022-03-07 20:14:00,,0827.3,4.99,0.00,22.0,21.7,00.0,30.9,23.8,07.3,0000.0,0004.32,0005.75,0004.21
2022-03-07 20:15:00,,0827.3,5.01,0.00,22.0,21.7,00.0,31.0,23.7,07.7,0000.0,0004.31,0005.73,0004.21
2022-03-07 20:16:00,,0827.4,5.00,0.00,22.0,21.6,00.0,31.0,23.7,07.5,0000.0,0004.30,0005.70,0004.21
2022-03-07 20:17:00,,0827.4,5.00,0.00,22.0,21.5,00.0,31.0,23.7,06.9,0000.0,0004.31,0005.83,0004.20
2022-03-07 20:18:00,,0827.3,5.00,0.00,21.9,21.5,00.0,31.0,23.7,06.8,0000.0,0004.27,0007.09,0004.17
2022-03-07 20:19:00,,0827.2,5.00,0.00,22.0,21.5,00.0,31.0,23.7,06.8,0000.0,0004.24,0006.83,0004.15
2022-03-07 20:20:00,,0827.2,5.00,0.00,22.0,21.5,00.0,31.0,23.7,07.2,0000.0,0004.22,0006.80,0004.13
2022-03-07 20:21:00,,0827.7,5.00,0.00,22.0,21.5,00.0,31.0,23.7,07.2,0000.0,0004.20,0006.75,0004.12
2022-03-07 20:22:00,,0827.6,5.00,0.00,21.9,21.4,00.0,31.0,23.7,07.5,0000.0,0004.20,0006.76,0004.12
2022-03-07 20:23:00,,0827.1,5.00,0.00,21.9,21.4,00.0,31.0,23.7,07.1,0000.0,0004.21,0006.76,0004.13
2022-03-07 20:24:00,,0827.1,5.00,0.00,22.0,21.4,00.0,31.0,23.8,07.1,0000.0,0004.21,0006.78,0004.14
2022-03-07 20:25:00,,0827.1,5.01,0.00,22.0,21.5,00.0,31.0,23.8,07.4,0000.0,0004.23,0006.83,0004.13
2022-03-07 20:26:00,,0827.1,5.00,0.00,22.0,21.5,00.0,31.0,23.9,08.4,0000.0,0004.24,0006.86,0004.14
2022-03-07 20:27:00,,0827.2,5.00,0.00,22.0,21.6,00.0,31.0,23.9,07.9,0000.0,0004.29,0006.98,0004.18
2022-03-07 20:28:00,,0827.3,4.99,0.00,22.0,21.6,00.0,31.0,23.8,07.6,0000.0,0004.34,0007.05,0004.23
2022-03-07 20:29:00,,0827.2,5.00,0.00,22.0,21.5,00.0,31.0,23.8,07.6,0000.0,0004.41,0005.70,0004.29
2022-03-07 20:30:00,,0827.1,5.00,0.00,22.0,21.5,00.0,31.0,23.7,07.3,0000.0,0004.47,0006.58,0004.33
2022-03-07 20:31:00,,0827.2,5.00,0.00,22.0,21.5,00.0,31.0,23.7,07.6,0000.0,0004.50,0007.38,0004.36
2022-03-07 20:32:00,,0827.1,5.00,0.00,22.0,21.4,00.0,31.0,23.7,07.9,0000.0,0004.56,0007.50,0004.40
2022-03-07 20:33:00,,0827.2,5.01,0.00,22.0,21.4,00.0,31.0,23.7,07.7,0000.0,0004.59,0007.56,0004.42
2022-03-07 20:34:00,,0827.1,5.00,0.00,22.0,21.4,00.0,31.0,23.7,07.5,0000.0,0004.63,0007.59,0004.45
2022-03-07 20:35:00,,0827.1,5.00,0.00,22.0,21.4,00.0,31.0,23.7,07.8,0000.0,0004.70,0007.68,0004.50
2022-03-07 20:36:00,,0827.0,5.00,0.00,22.0,21.4,00.0,31.0,23.6,07.3,0000.0,0004.73,0007.77,0004.53
2022-03-07 20:37:00,,0827.0,5.00,0.00,21.9,21.4,00.0,31.0,23.7,07.5,0000.0,0004.77,0007.80,0004.57
2022-03-07 20:38:00,,0827.0,5.00,0.00,22.0,21.4,00.0,31.0,23.7,07.9,0000.0,0004.79,0007.84,0004.59
2022-03-07 20:39:00,,0827.0,5.00,0.00,22.0,21.4,00.0,31.0,23.7,07.7,0000.0,0004.81,0007.93,0004.60
2022-03-07 20:40:00,,0827.0,5.00,0.00,21.9,21.4,00.0,31.0,23.6,07.4,0000.0,0004.79,0007.96,0004.60
2022-03-07 20:41:00,,0827.0,4.99,0.00,21.9,21.4,00.0,31.0,23.6,07.4,0000.0,0004.81,0007.43,0004.62
2022-03-07 20:42:00,,0827.0,5.00,0.00,21.9,21.4,00.0,31.0,23.6,07.3,0000.0,0004.85,0007.08,0004.63
2022-03-07 20:43:00,,0827.0,5.00,0.00,21.9,21.3,00.0,31.0,23.6,07.2,0000.0,0004.84,0006.98,0004.64
2022-03-07 20:44:00,,0827.0,5.00,0.00,21.9,21.3,00.0,31.0,23.7,07.4,0000.0,0004.86,0006.98,0004.67
2022-03-07 20:45:00,,0827.0,5.00,0.00,21.9,21.4,00.0,31.0,23.7,07.4,0000.0,0004.88,0007.04,0004.68
2022-03-07 20:46:00,,0826.9,5.00,0.00,22.0,21.4,00.0,31.0,23.8,07.1,0000.0,0004.85,0007.09,0004.66
2022-03-07 20:47:00,,0827.0,5.00,0.00,22.0,21.5,00.0,31.0,23.8,07.7,0000.0,0004.84,0007.02,0004.67
2022-03-07 20:48:00,,0826.9,5.00,0.00,22.0,21.5,00.0,31.0,23.8,08.3,0000.0,0004.84,0007.28,0004.66
2022-03-07 20:49:00,,0826.9,4.99,0.00,22.0,21.5,00.0,31.0,23.8,08.2,0000.0,0004.87,0007.31,0004.69
2022-03-07 20:50:00,,0826.9,5.01,0.00,22.0,21.5,00.0,31.0,23.7,07.9,0000.0,0004.88,0007.23,0004.70
2022-03-07 20:51:00,,0827.0,5.00,0.00,22.0,21.5,00.0,31.0,23.7,07.9,0000.0,0004.91,0007.39,0004.73
2022-03-07 20:52:00,,0826.9,5.00,0.00,22.0,21.4,00.0,31.0,23.7,07.9,0000.0,0004.93,0007.48,0004.75
2022-03-07 20:53:00,,0826.9,5.00,0.00,21.9,21.3,00.0,31.0,23.6,07.8,0000.0,0004.94,0007.47,0004.78
2022-03-07 20:54:00,,0826.8,5.00,0.00,21.9,21.3,00.0,31.0,23.6,07.8,0000.0,0004.98,0007.50,0004.83
2022-03-07 20:55:00,,0826.8,5.00,0.00,21.9,21.2,00.0,31.0,23.6,08.6,0000.0,0005.01,0007.53,0004.85
2022-03-07 20:56:00,,0827.0,5.00,0.00,21.9,21.2,00.0,31.0,23.6,08.9,0000.0,0005.02,0007.63,0004.86
2022-03-07 20:57:00,,0826.9,5.00,0.00,21.9,21.2,00.0,31.0,23.6,08.1,0000.0,0005.04,0008.67,0004.88
2022-03-07 20:58:00,,0826.8,5.01,0.00,21.9,21.2,00.0,30.9,23.7,08.4,0000.0,0005.07,0009.00,0004.90
2022-03-07 20:59:00,,0826.8,5.00,0.00,21.9,21.3,00.0,30.9,23.7,08.8,0000.0,0005.10,0008.93,0004.93
